owner,sensor,date,latitude,longitude,vertical_datum,sea_water_practical_salinity,qcFlag 
SCCF RECON,ioos:station:SCCF:11:1,2017-12-01T05:00:00Z,26.4679,-82.0631,2.171,21.94,1111122 
SCCF RECON,ioos:station:SCCF:11:1,2017-12-01T06:00:00Z,26.4679,-82.0631,2.007,21.33,1111122 
SCCF RECON,ioos:station:SCCF:11:1,2017-12-01T07:00:00Z,26.4679,-82.0631,1.84,21.42,1111122 
SCCF RECON,ioos:station:SCCF:11:1,2017-12-01T08:00:00Z,26.4679,-82.0631,1.696,21.46,1111122 
SCCF RECON,ioos:station:SCCF:11:1,2017-12-01T09:00:00Z,26.4679,-82.0631,1.561,21.51,1111122 
SCCF RECON,ioos:station:SCCF:11:1,2017-12-01T10:00:00Z,26.4679,-82.0631,1.454,21.52,1111122 
SCCF RECON,ioos:station:SCCF:11:1,2017-12-01T11:00:00Z,26.4679,-82.0631,1.467,21.22,1111122 
SCCF RECON,ioos:station:SCCF:11:1,2017-12-01T12:00:00Z,26.4679,-82.0631,1.628,22.07,1111122 
SCCF RECON,ioos:station:SCCF:11:1,2017-12-01T13:00:00Z,26.4679,-82.0631,1.82,21.23,1111122 
SCCF RECON,ioos:station:SCCF:11:1,2017-12-01T14:00:00Z,26.4679,-82.0631,1.95,19.88,1111122 
SCCF RECON,ioos:station:SCCF:11:1,2017-12-01T15:00:00Z,26.4679,-82.0631,2.06,20.96,1111122 
SCCF RECON,ioos:station:SCCF:11:1,2017-12-01T16:00:00Z,26.4679,-82.0631,2.135,21.39,1111122 
SCCF RECON,ioos:station:SCCF:11:1,2017-12-01T17:00:00Z,26.4679,-82.0631,2.13,22.46,1111122 
SCCF RECON,ioos:station:SCCF:11:1,2017-12-01T18:00:00Z,26.4679,-82.0631,2.05,21.67,1111122 
SCCF RECON,ioos:station:SCCF:11:1,2017-12-01T19:00:00Z,26.4679,-82.0631,1.96,20.94,1111122 
SCCF RECON,ioos:station:SCCF:11:1,2017-12-01T20:00:00Z,26.4679,-82.0631,1.88,20.7,1111122 
SCCF RECON,ioos:station:SCCF:11:1,2017-12-01T21:00:00Z,26.4679,-82.0631,1.832,20.85,1111122 
SCCF RECON,ioos:station:SCCF:11:1,2017-12-01T22:00:00Z,26.4679,-82.0631,1.81,21.07,1111122 
SCCF RECON,ioos:station:SCCF:11:1,2017-12-02T05:00:00Z,26.4679,-82.0631,2.33,26.88,1111122 
SCCF RECON,ioos:station:SCCF:11:1,2017-12-02T06:00:00Z,26.4679,-82.0631,2.18,21.51,1111122 
SCCF RECON,ioos:station:SCCF:11:1,2017-12-02T07:00:00Z,26.4679,-82.0631,1.986,21.45,1111122 
SCCF RECON,ioos:station:SCCF:11:1,2017-12-02T08:00:00Z,26.4679,-82.0631,1.811,21.43,1111122 
SCCF RECON,ioos:station:SCCF:11:1,2017-12-02T09:00:00Z,26.4679,-82.0631,1.651,21.42,1111122 
SCCF RECON,ioos:station:SCCF:11:1,2017-12-02T10:00:00Z,26.4679,-82.0631,1.499,21.43,1111122 
SCCF RECON,ioos:station:SCCF:11:1,2017-12-02T11:00:00Z,26.4679,-82.0631,1.421,21.41,1111122 
SCCF RECON,ioos:station:SCCF:11:1,2017-12-02T12:00:00Z,26.4679,-82.0631,1.487,21.23,1111122 
SCCF RECON,ioos:station:SCCF:11:1,2017-12-02T13:00:00Z,26.4679,-82.0631,1.677,22.03,1111122 
SCCF RECON,ioos:station:SCCF:11:1,2017-12-02T14:00:00Z,26.4679,-82.0631,1.869,19.76,1111122 
SCCF RECON,ioos:station:SCCF:11:1,2017-12-02T15:00:00Z,26.4679,-82.0631,2.01,21.06,1111122 
SCCF RECON,ioos:station:SCCF:11:1,2017-12-02T16:00:00Z,26.4679,-82.0631,2.131,21.34,1111122 
SCCF RECON,ioos:station:SCCF:11:1,2017-12-02T17:00:00Z,26.4679,-82.0631,2.2,23.63,1111122 
SCCF RECON,ioos:station:SCCF:11:1,2017-12-02T18:00:00Z,26.4679,-82.0631,2.17,25.21,1111122 
SCCF RECON,ioos:station:SCCF:11:1,2017-12-02T19:00:00Z,26.4679,-82.0631,2.087,23.68,1111122 
SCCF RECON,ioos:station:SCCF:11:1,2017-12-02T20:00:00Z,26.4679,-82.0631,1.981,21.43,1111122 
SCCF RECON,ioos:station:SCCF:11:1,2017-12-02T21:00:00Z,26.4679,-82.0631,1.918,21.67,1111122 
SCCF RECON,ioos:station:SCCF:11:1,2017-12-02T22:00:00Z,26.4679,-82.0631,1.876,21.92,1111122 
SCCF RECON,ioos:station:SCCF:11:1,2017-12-03T05:00:00Z,26.4679,-82.0631,2.42,27.18,1111122 
SCCF RECON,ioos:station:SCCF:11:1,2017-12-03T06:00:00Z,26.4679,-82.0631,2.33,25.96,1111122 
SCCF RECON,ioos:station:SCCF:11:1,2017-12-03T07:00:00Z,26.4679,-82.0631,2.135,22.19,1111122 
SCCF RECON,ioos:station:SCCF:11:1,2017-12-03T08:00:00Z,26.4679,-82.0631,1.952,22.0,1111122 
SCCF RECON,ioos:station:SCCF:11:1,2017-12-03T09:00:00Z,26.4679,-82.0631,1.776,21.88,1111122 
SCCF RECON,ioos:station:SCCF:11:1,2017-12-03T10:00:00Z,26.4679,-82.0631,1.61,21.82,1111122 
SCCF RECON,ioos:station:SCCF:11:1,2017-12-03T11:00:00Z,26.4679,-82.0631,1.471,21.75,1111122 
SCCF RECON,ioos:station:SCCF:11:1,2017-12-03T12:00:00Z,26.4679,-82.0631,1.4,21.67,1111122 
SCCF RECON,ioos:station:SCCF:11:1,2017-12-03T13:00:00Z,26.4679,-82.0631,1.484,21.59,1111122 
SCCF RECON,ioos:station:SCCF:11:1,2017-12-03T14:00:00Z,26.4679,-82.0631,1.701,23.25,1111122 
SCCF RECON,ioos:station:SCCF:11:1,2017-12-03T15:00:00Z,26.4679,-82.0631,1.9,21.06,1111122 
SCCF RECON,ioos:station:SCCF:11:1,2017-12-03T16:00:00Z,26.4679,-82.0631,2.044,22.11,1111122 
SCCF RECON,ioos:station:SCCF:11:1,2017-12-03T17:00:00Z,26.4679,-82.0631,2.153,23.5,1111122 
SCCF RECON,ioos:station:SCCF:11:1,2017-12-03T18:00:00Z,26.4679,-82.0631,2.22,26.09,1111122 
SCCF RECON,ioos:station:SCCF:11:1,2017-12-03T19:00:00Z,26.4679,-82.0631,2.204,27.77,1111122 
SCCF RECON,ioos:station:SCCF:11:1,2017-12-03T20:00:00Z,26.4679,-82.0631,2.111,23.36,1111122 
SCCF RECON,ioos:station:SCCF:11:1,2017-12-03T21:00:00Z,26.4679,-82.0631,2.015,22.29,1111122 
SCCF RECON,ioos:station:SCCF:11:1,2017-12-03T22:00:00Z,26.4679,-82.0631,1.97,22.65,1111122 
SCCF RECON,ioos:station:SCCF:11:1,2017-12-04T05:00:00Z,26.4679,-82.0631,2.42,25.19,1111122 
SCCF RECON,ioos:station:SCCF:11:1,2017-12-04T06:00:00Z,26.4679,-82.0631,2.39,24.62,1111122 
SCCF RECON,ioos:station:SCCF:11:1,2017-12-04T07:00:00Z,26.4679,-82.0631,2.26,22.98,1111122 
SCCF RECON,ioos:station:SCCF:11:1,2017-12-04T08:00:00Z,26.4679,-82.0631,2.061,22.63,1111122 
SCCF RECON,ioos:station:SCCF:11:1,2017-12-04T09:00:00Z,26.4679,-82.0631,1.886,22.43,1111122 
SCCF RECON,ioos:station:SCCF:11:1,2017-12-04T10:00:00Z,26.4679,-82.0631,1.704,22.29,1111122 
SCCF RECON,ioos:station:SCCF:11:1,2017-12-04T11:00:00Z,26.4679,-82.0631,1.541,22.27,1111122 
SCCF RECON,ioos:station:SCCF:11:1,2017-12-04T12:00:00Z,26.4679,-82.0631,1.402,22.27,1111122 
SCCF RECON,ioos:station:SCCF:11:1,2017-12-04T13:00:00Z,26.4679,-82.0631,1.338,22.21,1111122 
SCCF RECON,ioos:station:SCCF:11:1,2017-12-04T14:00:00Z,26.4679,-82.0631,1.449,22.34,1111122 
SCCF RECON,ioos:station:SCCF:11:1,2017-12-04T15:00:00Z,26.4679,-82.0631,1.68,23.14,1111122 
SCCF RECON,ioos:station:SCCF:11:1,2017-12-04T16:00:00Z,26.4679,-82.0631,1.863,22.41,1111122 
SCCF RECON,ioos:station:SCCF:11:1,2017-12-04T17:00:00Z,26.4679,-82.0631,1.99,22.73,1111122 
SCCF RECON,ioos:station:SCCF:11:1,2017-12-04T18:00:00Z,26.4679,-82.0631,2.091,23.04,1111122 
SCCF RECON,ioos:station:SCCF:11:1,2017-12-04T19:00:00Z,26.4679,-82.0631,2.15,25.86,1111122 
SCCF RECON,ioos:station:SCCF:11:1,2017-12-04T20:00:00Z,26.4679,-82.0631,2.143,26.89,1111122 
SCCF RECON,ioos:station:SCCF:11:1,2017-12-04T21:00:00Z,26.4679,-82.0631,2.083,27.42,1111122 
SCCF RECON,ioos:station:SCCF:11:1,2017-12-04T22:00:00Z,26.4679,-82.0631,2.021,24.22,1111122 
SCCF RECON,ioos:station:SCCF:11:1,2017-12-05T05:00:00Z,26.4679,-82.0631,2.44,29.64,1111122 
SCCF RECON,ioos:station:SCCF:11:1,2017-12-05T06:00:00Z,26.4679,-82.0631,2.45,29.03,1111122 
SCCF RECON,ioos:station:SCCF:11:1,2017-12-05T07:00:00Z,26.4679,-82.0631,2.4,30.21,1111122 
SCCF RECON,ioos:station:SCCF:11:1,2017-12-05T08:00:00Z,26.4679,-82.0631,2.26,24.22,1111122 
SCCF RECON,ioos:station:SCCF:11:1,2017-12-05T09:00:00Z,26.4679,-82.0631,2.073,23.41,1111122 
SCCF RECON,ioos:station:SCCF:11:1,2017-12-05T10:00:00Z,26.4679,-82.0631,1.9,23.23,1111122 
SCCF RECON,ioos:station:SCCF:11:1,2017-12-05T11:00:00Z,26.4679,-82.0631,1.736,23.03,1111122 
SCCF RECON,ioos:station:SCCF:11:1,2017-12-05T12:00:00Z,26.4679,-82.0631,1.574,22.99,1111122 
SCCF RECON,ioos:station:SCCF:11:1,2017-12-05T13:00:00Z,26.4679,-82.0631,1.444,22.95,1111122 
SCCF RECON,ioos:station:SCCF:11:1,2017-12-05T14:00:00Z,26.4679,-82.0631,1.417,22.74,1111122 
SCCF RECON,ioos:station:SCCF:11:1,2017-12-05T15:00:00Z,26.4679,-82.0631,1.551,23.95,1111122 
SCCF RECON,ioos:station:SCCF:11:1,2017-12-05T16:00:00Z,26.4679,-82.0631,1.761,24.22,1111122 
SCCF RECON,ioos:station:SCCF:11:1,2017-12-05T17:00:00Z,26.4679,-82.0631,1.927,23.36,1111122 
SCCF RECON,ioos:station:SCCF:11:1,2017-12-05T18:00:00Z,26.4679,-82.0631,2.027,23.31,1111122 
SCCF RECON,ioos:station:SCCF:11:1,2017-12-05T19:00:00Z,26.4679,-82.0631,2.102,24.88,1111122 
SCCF RECON,ioos:station:SCCF:11:1,2017-12-05T20:00:00Z,26.4679,-82.0631,2.147,25.98,1111122 
SCCF RECON,ioos:station:SCCF:11:1,2017-12-05T21:00:00Z,26.4679,-82.0631,2.117,27.76,1111122 
SCCF RECON,ioos:station:SCCF:11:1,2017-12-05T22:00:00Z,26.4679,-82.0631,2.06,28.21,1111122 
SCCF RECON,ioos:station:SCCF:11:1,2017-12-06T05:00:00Z,26.4679,-82.0631,2.39,26.63,1111122 
SCCF RECON,ioos:station:SCCF:11:1,2017-12-06T06:00:00Z,26.4679,-82.0631,2.41,28.29,1111122 
SCCF RECON,ioos:station:SCCF:11:1,2017-12-06T07:00:00Z,26.4679,-82.0631,2.4,29.19,1111122 
SCCF RECON,ioos:station:SCCF:11:1,2017-12-06T08:00:00Z,26.4679,-82.0631,2.327,29.5,1111122 
SCCF RECON,ioos:station:SCCF:11:1,2017-12-06T09:00:00Z,26.4679,-82.0631,2.189,24.03,1111122 
SCCF RECON,ioos:station:SCCF:11:1,2017-12-06T10:00:00Z,26.4679,-82.0631,2.009,23.85,1111122 
SCCF RECON,ioos:station:SCCF:11:1,2017-12-06T11:00:00Z,26.4679,-82.0631,1.842,23.77,1111122 
SCCF RECON,ioos:station:SCCF:11:1,2017-12-06T12:00:00Z,26.4679,-82.0631,1.682,23.71,1111122 
SCCF RECON,ioos:station:SCCF:11:1,2017-12-06T13:00:00Z,26.4679,-82.0631,1.532,23.62,1111122 
SCCF RECON,ioos:station:SCCF:11:1,2017-12-06T14:00:00Z,26.4679,-82.0631,1.418,23.59,1111122 
SCCF RECON,ioos:station:SCCF:11:1,2017-12-06T15:00:00Z,26.4679,-82.0631,1.42,23.55,1111122 
SCCF RECON,ioos:station:SCCF:11:1,2017-12-06T16:00:00Z,26.4679,-82.0631,1.569,25.52,1111122 
SCCF RECON,ioos:station:SCCF:11:1,2017-12-06T17:00:00Z,26.4679,-82.0631,1.78,23.79,1111122 
SCCF RECON,ioos:station:SCCF:11:1,2017-12-06T18:00:00Z,26.4679,-82.0631,1.91,24.04,1111122 
SCCF RECON,ioos:station:SCCF:11:1,2017-12-06T19:00:00Z,26.4679,-82.0631,2.005,24.34,1111122 
SCCF RECON,ioos:station:SCCF:11:1,2017-12-06T20:00:00Z,26.4679,-82.0631,2.083,25.72,1111122 
SCCF RECON,ioos:station:SCCF:11:1,2017-12-06T21:00:00Z,26.4679,-82.0631,2.132,27.29,1111122 
SCCF RECON,ioos:station:SCCF:11:1,2017-12-06T22:00:00Z,26.4679,-82.0631,2.1,28.94,1111122 
SCCF RECON,ioos:station:SCCF:11:1,2017-12-07T05:00:00Z,26.4679,-82.0631,2.23,26.86,1111122 
SCCF RECON,ioos:station:SCCF:11:1,2017-12-07T06:00:00Z,26.4679,-82.0631,2.276,27.25,1111122 
SCCF RECON,ioos:station:SCCF:11:1,2017-12-07T07:00:00Z,26.4679,-82.0631,2.27,27.31,1111122 
SCCF RECON,ioos:station:SCCF:11:1,2017-12-07T08:00:00Z,26.4679,-82.0631,2.279,28.21,1111122 
SCCF RECON,ioos:station:SCCF:11:1,2017-12-07T09:00:00Z,26.4679,-82.0631,2.24,28.73,1111122 
SCCF RECON,ioos:station:SCCF:11:1,2017-12-07T10:00:00Z,26.4679,-82.0631,2.139,26.9,1111122 
SCCF RECON,ioos:station:SCCF:11:1,2017-12-07T11:00:00Z,26.4679,-82.0631,1.959,24.75,1111122 
SCCF RECON,ioos:station:SCCF:11:1,2017-12-07T12:00:00Z,26.4679,-82.0631,1.777,24.68,1111122 
SCCF RECON,ioos:station:SCCF:11:1,2017-12-07T13:00:00Z,26.4679,-82.0631,1.629,24.7,1111122 
SCCF RECON,ioos:station:SCCF:11:1,2017-12-07T14:00:00Z,26.4679,-82.0631,1.502,24.42,1111122 
SCCF RECON,ioos:station:SCCF:11:1,2017-12-07T15:00:00Z,26.4679,-82.0631,1.418,24.38,1111122 
SCCF RECON,ioos:station:SCCF:11:1,2017-12-07T16:00:00Z,26.4679,-82.0631,1.42,25.13,1111122 
SCCF RECON,ioos:station:SCCF:11:1,2017-12-07T17:00:00Z,26.4679,-82.0631,1.58,26.06,1111122 
SCCF RECON,ioos:station:SCCF:11:1,2017-12-07T18:00:00Z,26.4679,-82.0631,1.761,24.34,1111122 
SCCF RECON,ioos:station:SCCF:11:1,2017-12-07T19:00:00Z,26.4679,-82.0631,1.889,24.59,1111122 
SCCF RECON,ioos:station:SCCF:11:1,2017-12-07T20:00:00Z,26.4679,-82.0631,1.985,25.02,1111122 
SCCF RECON,ioos:station:SCCF:11:1,2017-12-07T22:00:00Z,26.4679,-82.0631,2.086,27.56,1111122 
SCCF RECON,ioos:station:SCCF:11:1,2017-12-08T05:00:00Z,26.4679,-82.0631,2.092,28.48,1111122 
SCCF RECON,ioos:station:SCCF:11:1,2017-12-08T06:00:00Z,26.4679,-82.0631,2.18,28.34,1111122 
SCCF RECON,ioos:station:SCCF:11:1,2017-12-08T07:00:00Z,26.4679,-82.0631,2.232,28.42,1111122 
SCCF RECON,ioos:station:SCCF:11:1,2017-12-08T08:00:00Z,26.4679,-82.0631,2.27,29.86,1111122 
SCCF RECON,ioos:station:SCCF:11:1,2017-12-08T09:00:00Z,26.4679,-82.0631,2.27,30.88,1111122 
SCCF RECON,ioos:station:SCCF:11:1,2017-12-08T10:00:00Z,26.4679,-82.0631,2.23,31.47,1111122 
SCCF RECON,ioos:station:SCCF:11:1,2017-12-08T11:00:00Z,26.4679,-82.0631,2.14,31.95,1111122 
SCCF RECON,ioos:station:SCCF:11:1,2017-12-08T12:00:00Z,26.4679,-82.0631,1.97,25.83,1111122 
SCCF RECON,ioos:station:SCCF:11:1,2017-12-08T13:00:00Z,26.4679,-82.0631,1.826,25.42,1111122 
SCCF RECON,ioos:station:SCCF:11:1,2017-12-08T14:00:00Z,26.4679,-82.0631,1.71,25.27,1111122 
SCCF RECON,ioos:station:SCCF:11:1,2017-12-08T15:00:00Z,26.4679,-82.0631,1.585,25.5,1111122 
SCCF RECON,ioos:station:SCCF:11:1,2017-12-08T16:00:00Z,26.4679,-82.0631,1.518,25.1,1111122 
SCCF RECON,ioos:station:SCCF:11:1,2017-12-08T17:00:00Z,26.4679,-82.0631,1.56,26.21,1111122 
SCCF RECON,ioos:station:SCCF:11:1,2017-12-08T18:00:00Z,26.4679,-82.0631,1.7,28.16,1111122 
SCCF RECON,ioos:station:SCCF:11:1,2017-12-08T19:00:00Z,26.4679,-82.0631,1.83,27.41,1111122 
SCCF RECON,ioos:station:SCCF:11:1,2017-12-08T20:00:00Z,26.4679,-82.0631,1.92,27.78,1111122 
SCCF RECON,ioos:station:SCCF:11:1,2017-12-08T21:00:00Z,26.4679,-82.0631,2.021,28.3,1111122 
SCCF RECON,ioos:station:SCCF:11:1,2017-12-08T22:00:00Z,26.4679,-82.0631,2.094,30.12,1111122 
SCCF RECON,ioos:station:SCCF:11:1,2017-12-09T05:00:00Z,26.4679,-82.0631,2.03,32.63,1111122 
SCCF RECON,ioos:station:SCCF:11:1,2017-12-09T06:00:00Z,26.4679,-82.0631,2.16,31.8,1111122 
SCCF RECON,ioos:station:SCCF:11:1,2017-12-09T07:00:00Z,26.4679,-82.0631,2.228,32.94,1111122 
SCCF RECON,ioos:station:SCCF:11:1,2017-12-09T08:00:00Z,26.4679,-82.0631,2.26,32.33,1111122 
SCCF RECON,ioos:station:SCCF:11:1,2017-12-09T09:00:00Z,26.4679,-82.0631,2.31,31.97,1111122 
SCCF RECON,ioos:station:SCCF:11:1,2017-12-09T10:00:00Z,26.4679,-82.0631,2.358,30.69,1111122 
SCCF RECON,ioos:station:SCCF:11:1,2017-12-09T11:00:00Z,26.4679,-82.0631,2.327,30.63,1111122 
SCCF RECON,ioos:station:SCCF:11:1,2017-12-09T12:00:00Z,26.4679,-82.0631,2.238,28.43,1111122 
SCCF RECON,ioos:station:SCCF:11:1,2017-12-09T13:00:00Z,26.4679,-82.0631,2.1,28.39,1111122 
SCCF RECON,ioos:station:SCCF:11:1,2017-12-09T14:00:00Z,26.4679,-82.0631,1.954,27.85,1111122 
SCCF RECON,ioos:station:SCCF:11:1,2017-12-09T15:00:00Z,26.4679,-82.0631,1.781,27.91,1111122 
SCCF RECON,ioos:station:SCCF:11:1,2017-12-09T16:00:00Z,26.4679,-82.0631,1.63,28.12,1111122 
SCCF RECON,ioos:station:SCCF:11:1,2017-12-09T17:00:00Z,26.4679,-82.0631,1.518,27.43,1111122 
SCCF RECON,ioos:station:SCCF:11:1,2017-12-09T18:00:00Z,26.4679,-82.0631,1.549,27.85,1111122 
SCCF RECON,ioos:station:SCCF:11:1,2017-12-09T19:00:00Z,26.4679,-82.0631,1.7,28.02,1111122 
SCCF RECON,ioos:station:SCCF:11:1,2017-12-09T20:00:00Z,26.4679,-82.0631,1.836,27.43,1111122 
SCCF RECON,ioos:station:SCCF:11:1,2017-12-09T21:00:00Z,26.4679,-82.0631,1.844,28.1,1111122 
SCCF RECON,ioos:station:SCCF:11:1,2017-12-09T22:00:00Z,26.4679,-82.0631,1.84,28.21,1111122 
SCCF RECON,ioos:station:SCCF:11:1,2017-12-10T05:00:00Z,26.4679,-82.0631,1.642,27.86,1111122 
SCCF RECON,ioos:station:SCCF:11:1,2017-12-10T06:00:00Z,26.4679,-82.0631,1.589,27.62,1111122 
SCCF RECON,ioos:station:SCCF:11:1,2017-12-10T07:00:00Z,26.4679,-82.0631,1.611,27.36,1111122 
SCCF RECON,ioos:station:SCCF:11:1,2017-12-10T08:00:00Z,26.4679,-82.0631,1.694,27.57,1111122 
SCCF RECON,ioos:station:SCCF:11:1,2017-12-10T09:00:00Z,26.4679,-82.0631,1.759,27.63,1111122 
SCCF RECON,ioos:station:SCCF:11:1,2017-12-10T10:00:00Z,26.4679,-82.0631,1.781,27.7,1111122 
SCCF RECON,ioos:station:SCCF:11:1,2017-12-10T11:00:00Z,26.4679,-82.0631,1.797,27.69,1111122 
SCCF RECON,ioos:station:SCCF:11:1,2017-12-10T12:00:00Z,26.4679,-82.0631,1.806,27.71,1111122 
SCCF RECON,ioos:station:SCCF:11:1,2017-12-10T13:00:00Z,26.4679,-82.0631,1.812,27.76,1111122 
SCCF RECON,ioos:station:SCCF:11:1,2017-12-10T14:00:00Z,26.4679,-82.0631,1.754,27.79,1111122 
SCCF RECON,ioos:station:SCCF:11:1,2017-12-10T15:00:00Z,26.4679,-82.0631,1.669,27.7,1111122 
SCCF RECON,ioos:station:SCCF:11:1,2017-12-10T16:00:00Z,26.4679,-82.0631,1.601,27.56,1111122 
SCCF RECON,ioos:station:SCCF:11:1,2017-12-10T17:00:00Z,26.4679,-82.0631,1.539,27.56,1111122 
SCCF RECON,ioos:station:SCCF:11:1,2017-12-10T18:00:00Z,26.4679,-82.0631,1.507,27.51,1111122 
SCCF RECON,ioos:station:SCCF:11:1,2017-12-10T19:00:00Z,26.4679,-82.0631,1.518,27.48,1111122 
SCCF RECON,ioos:station:SCCF:11:1,2017-12-10T20:00:00Z,26.4679,-82.0631,1.622,27.97,1111122 
SCCF RECON,ioos:station:SCCF:11:1,2017-12-10T21:00:00Z,26.4679,-82.0631,1.761,27.77,1111122 
SCCF RECON,ioos:station:SCCF:11:1,2017-12-10T22:00:00Z,26.4679,-82.0631,1.878,27.57,1111122 
SCCF RECON,ioos:station:SCCF:11:1,2017-12-11T05:00:00Z,26.4679,-82.0631,1.802,23.95,1111122 
SCCF RECON,ioos:station:SCCF:11:1,2017-12-11T06:00:00Z,26.4679,-82.0631,1.73,26.3,1111122 
SCCF RECON,ioos:station:SCCF:11:1,2017-12-11T07:00:00Z,26.4679,-82.0631,1.677,25.35,1111122 
SCCF RECON,ioos:station:SCCF:11:1,2017-12-11T08:00:00Z,26.4679,-82.0631,1.685,25.17,1111122 
SCCF RECON,ioos:station:SCCF:11:1,2017-12-11T09:00:00Z,26.4679,-82.0631,1.74,26.23,1111122 
SCCF RECON,ioos:station:SCCF:11:1,2017-12-11T10:00:00Z,26.4679,-82.0631,1.81,26.1,1111122 
SCCF RECON,ioos:station:SCCF:11:1,2017-12-11T11:00:00Z,26.4679,-82.0631,1.872,25.98,1111122 
SCCF RECON,ioos:station:SCCF:11:1,2017-12-11T12:00:00Z,26.4679,-82.0631,1.923,25.15,1111122 
SCCF RECON,ioos:station:SCCF:11:1,2017-12-11T13:00:00Z,26.4679,-82.0631,1.94,24.99,1111122 
SCCF RECON,ioos:station:SCCF:11:1,2017-12-11T14:00:00Z,26.4679,-82.0631,1.907,23.55,1111122 
SCCF RECON,ioos:station:SCCF:11:1,2017-12-11T15:00:00Z,26.4679,-82.0631,1.828,25.5,1111122 
SCCF RECON,ioos:station:SCCF:11:1,2017-12-11T16:00:00Z,26.4679,-82.0631,1.75,26.0,1111122 
SCCF RECON,ioos:station:SCCF:11:1,2017-12-11T17:00:00Z,26.4679,-82.0631,1.678,25.78,1111122 
SCCF RECON,ioos:station:SCCF:11:1,2017-12-11T18:00:00Z,26.4679,-82.0631,1.605,25.04,1111122 
SCCF RECON,ioos:station:SCCF:11:1,2017-12-11T19:00:00Z,26.4679,-82.0631,1.572,24.52,1111122 
SCCF RECON,ioos:station:SCCF:11:1,2017-12-11T20:00:00Z,26.4679,-82.0631,1.615,24.57,1111122 
SCCF RECON,ioos:station:SCCF:11:1,2017-12-11T21:00:00Z,26.4679,-82.0631,1.719,24.71,1111122 
SCCF RECON,ioos:station:SCCF:11:1,2017-12-11T22:00:00Z,26.4679,-82.0631,1.85,25.65,1111122 
SCCF RECON,ioos:station:SCCF:11:1,2017-12-12T05:00:00Z,26.4679,-82.0631,1.901,24.81,1111122 
SCCF RECON,ioos:station:SCCF:11:1,2017-12-12T06:00:00Z,26.4679,-82.0631,1.81,25.53,1111122 
SCCF RECON,ioos:station:SCCF:11:1,2017-12-12T07:00:00Z,26.4679,-82.0631,1.732,24.86,1111122 
SCCF RECON,ioos:station:SCCF:11:1,2017-12-12T08:00:00Z,26.4679,-82.0631,1.7,24.58,1111122 
SCCF RECON,ioos:station:SCCF:11:1,2017-12-12T09:00:00Z,26.4679,-82.0631,1.74,25.8,1111122 
SCCF RECON,ioos:station:SCCF:11:1,2017-12-12T10:00:00Z,26.4679,-82.0631,1.85,26.14,1111122 
SCCF RECON,ioos:station:SCCF:11:1,2017-12-12T11:00:00Z,26.4679,-82.0631,1.95,25.89,1111122 
SCCF RECON,ioos:station:SCCF:11:1,2017-12-12T12:00:00Z,26.4679,-82.0631,2.019,26.58,1111122 
SCCF RECON,ioos:station:SCCF:11:1,2017-12-12T13:00:00Z,26.4679,-82.0631,2.08,26.83,1111122 
SCCF RECON,ioos:station:SCCF:11:1,2017-12-12T14:00:00Z,26.4679,-82.0631,2.13,27.42,1111122 
SCCF RECON,ioos:station:SCCF:11:1,2017-12-12T15:00:00Z,26.4679,-82.0631,2.14,27.64,1111122 
SCCF RECON,ioos:station:SCCF:11:1,2017-12-12T16:00:00Z,26.4679,-82.0631,2.115,27.73,1111122 
SCCF RECON,ioos:station:SCCF:11:1,2017-12-12T17:00:00Z,26.4679,-82.0631,2.021,26.27,1111122 
SCCF RECON,ioos:station:SCCF:11:1,2017-12-12T18:00:00Z,26.4679,-82.0631,1.916,26.09,1111122 
SCCF RECON,ioos:station:SCCF:11:1,2017-12-12T20:00:00Z,26.4679,-82.0631,1.873,26.27,1111122 
SCCF RECON,ioos:station:SCCF:11:1,2017-12-12T21:00:00Z,26.4679,-82.0631,1.914,26.4,1111122 
SCCF RECON,ioos:station:SCCF:11:1,2017-12-12T22:00:00Z,26.4679,-82.0631,1.966,25.98,1111122 
SCCF RECON,ioos:station:SCCF:11:1,2017-12-13T09:00:00Z,26.4679,-82.0631,1.536,26.4,1111122 
SCCF RECON,ioos:station:SCCF:11:1,2017-12-13T10:00:00Z,26.4679,-82.0631,1.53,27.28,1111122 
SCCF RECON,ioos:station:SCCF:11:1,2017-12-13T11:00:00Z,26.4679,-82.0631,1.609,27.41,1111122 
SCCF RECON,ioos:station:SCCF:11:1,2017-12-13T12:00:00Z,26.4679,-82.0631,1.726,28.34,1111122 
SCCF RECON,ioos:station:SCCF:11:1,2017-12-13T13:00:00Z,26.4679,-82.0631,1.818,28.04,1111122 
SCCF RECON,ioos:station:SCCF:11:1,2017-12-13T14:00:00Z,26.4679,-82.0631,1.893,27.1,1111122 
SCCF RECON,ioos:station:SCCF:11:1,2017-12-13T17:00:00Z,26.4679,-82.0631,1.93,26.87,1111122 
SCCF RECON,ioos:station:SCCF:11:1,2017-12-13T18:00:00Z,26.4679,-82.0631,1.865,27.08,1111122 
SCCF RECON,ioos:station:SCCF:11:1,2017-12-13T19:00:00Z,26.4679,-82.0631,1.8,27.28,1111122 
SCCF RECON,ioos:station:SCCF:11:1,2017-12-13T20:00:00Z,26.4679,-82.0631,1.792,26.07,1111122 
SCCF RECON,ioos:station:SCCF:11:1,2017-12-13T21:00:00Z,26.4679,-82.0631,1.831,25.24,1111122 
SCCF RECON,ioos:station:SCCF:11:1,2017-12-13T22:00:00Z,26.4679,-82.0631,1.897,25.03,1111122 
SCCF RECON,ioos:station:SCCF:11:1,2017-12-14T11:00:00Z,26.4679,-82.0631,1.65,27.95,1111122 
SCCF RECON,ioos:station:SCCF:11:1,2017-12-14T12:00:00Z,26.4679,-82.0631,1.782,27.86,1111122 
SCCF RECON,ioos:station:SCCF:11:1,2017-12-14T13:00:00Z,26.4679,-82.0631,1.908,25.22,1111122 
SCCF RECON,ioos:station:SCCF:11:1,2017-12-14T14:00:00Z,26.4679,-82.0631,1.979,25.88,1111122 
SCCF RECON,ioos:station:SCCF:11:1,2017-12-14T15:00:00Z,26.4679,-82.0631,2.048,26.86,1111122 
SCCF RECON,ioos:station:SCCF:11:1,2017-12-14T16:00:00Z,26.4679,-82.0631,2.09,26.49,1111122 
SCCF RECON,ioos:station:SCCF:11:1,2017-12-14T17:00:00Z,26.4679,-82.0631,2.096,27.23,1111122 
SCCF RECON,ioos:station:SCCF:11:1,2017-12-14T18:00:00Z,26.4679,-82.0631,2.051,27.55,1111122 
SCCF RECON,ioos:station:SCCF:11:1,2017-12-14T19:00:00Z,26.4679,-82.0631,1.982,27.71,1111122 
SCCF RECON,ioos:station:SCCF:11:1,2017-12-14T20:00:00Z,26.4679,-82.0631,1.93,29.12,1111122 
SCCF RECON,ioos:station:SCCF:11:1,2017-12-14T21:00:00Z,26.4679,-82.0631,1.918,28.11,1111122 
SCCF RECON,ioos:station:SCCF:11:1,2017-12-14T22:00:00Z,26.4679,-82.0631,1.911,29.01,1111122 
SCCF RECON,ioos:station:SCCF:11:1,2017-12-15T05:00:00Z,26.4679,-82.0631,2.269,31.12,1111122 
SCCF RECON,ioos:station:SCCF:11:1,2017-12-15T06:00:00Z,26.4679,-82.0631,2.14,28.12,1111122 
SCCF RECON,ioos:station:SCCF:11:1,2017-12-15T07:00:00Z,26.4679,-82.0631,1.974,27.69,1111122 
SCCF RECON,ioos:station:SCCF:11:1,2017-12-15T08:00:00Z,26.4679,-82.0631,1.842,27.56,1111122 
SCCF RECON,ioos:station:SCCF:11:1,2017-12-15T09:00:00Z,26.4679,-82.0631,1.711,27.42,1111122 
SCCF RECON,ioos:station:SCCF:11:1,2017-12-15T10:00:00Z,26.4679,-82.0631,1.611,27.32,1111122 
SCCF RECON,ioos:station:SCCF:11:1,2017-12-15T11:00:00Z,26.4679,-82.0631,1.58,27.75,1111122 
SCCF RECON,ioos:station:SCCF:11:1,2017-12-15T12:00:00Z,26.4679,-82.0631,1.663,28.55,1111122 
SCCF RECON,ioos:station:SCCF:11:1,2017-12-15T13:00:00Z,26.4679,-82.0631,1.832,30.19,1111122 
SCCF RECON,ioos:station:SCCF:11:1,2017-12-15T14:00:00Z,26.4679,-82.0631,1.95,27.88,1111122 
SCCF RECON,ioos:station:SCCF:11:1,2017-12-15T15:00:00Z,26.4679,-82.0631,2.036,28.25,1111122 
SCCF RECON,ioos:station:SCCF:11:1,2017-12-15T16:00:00Z,26.4679,-82.0631,2.111,28.52,1111122 
SCCF RECON,ioos:station:SCCF:11:1,2017-12-15T17:00:00Z,26.4679,-82.0631,2.147,28.57,1111122 
SCCF RECON,ioos:station:SCCF:11:1,2017-12-15T18:00:00Z,26.4679,-82.0631,2.1,29.31,1111122 
SCCF RECON,ioos:station:SCCF:11:1,2017-12-15T19:00:00Z,26.4679,-82.0631,2.027,28.85,1111122 
SCCF RECON,ioos:station:SCCF:11:1,2017-12-15T20:00:00Z,26.4679,-82.0631,1.968,29.41,1111122 
SCCF RECON,ioos:station:SCCF:11:1,2017-12-15T21:00:00Z,26.4679,-82.0631,1.947,30.44,1111122 
SCCF RECON,ioos:station:SCCF:11:1,2017-12-15T22:00:00Z,26.4679,-82.0631,1.925,30.62,1111122 
SCCF RECON,ioos:station:SCCF:11:1,2017-12-16T05:00:00Z,26.4679,-82.0631,2.214,29.4,1111122 
SCCF RECON,ioos:station:SCCF:11:1,2017-12-16T06:00:00Z,26.4679,-82.0631,2.083,28.22,1111122 